ACO194 SKBO-SKPS

Flight info

Callsign ACO194
Flight time 0h 46m
Altitude 32000
Route VAPOM4R VAPOM DCT OREGA DCT PPN DCT MER
Aircraft A320/M-SDE3FGHIRWY/LB1

Departure

Time 2026-04-25 15:22
Airport El Dorado International Airport (SKBO)

Arrival

Time 2026-04-25 16:09
Airport Antonio Nariño Airport (SKPS)
Time Latitude Longitude Altitude Speed Heading
2026-04-25 14:53 4.69877 -74.14451 8366 ft 0 kts 226°
2026-04-25 15:01 4.69878 -74.14451 8366 ft 0 kts 226°
2026-04-25 15:02 4.69878 -74.14450 8366 ft 0 kts 226°
2026-04-25 15:07 4.69885 -74.14443 8366 ft 3 kts 226°
2026-04-25 15:07 4.69899 -74.14428 8366 ft 3 kts 231°
2026-04-25 15:07 4.69910 -74.14412 8366 ft 3 kts 258°
2026-04-25 15:07 4.69909 -74.14398 8366 ft 2 kts 306°
2026-04-25 15:08 4.69899 -74.14384 8366 ft 2 kts 307°
2026-04-25 15:08 4.69895 -74.14379 8366 ft 2 kts 307°
2026-04-25 15:11 4.69903 -74.14390 8366 ft 9 kts 307°
2026-04-25 15:11 4.69937 -74.14434 8366 ft 5 kts 307°
2026-04-25 15:11 4.69952 -74.14454 8366 ft 8 kts 307°
2026-04-25 15:12 4.69995 -74.14511 8366 ft 13 kts 307°
2026-04-25 15:12 4.70070 -74.14590 8366 ft 10 kts 328°
2026-04-25 15:12 4.70122 -74.14633 8366 ft 14 kts 317°
2026-04-25 15:12 4.70159 -74.14686 8366 ft 10 kts 268°
2026-04-25 15:13 4.70114 -74.14739 8366 ft 13 kts 219°
2026-04-25 15:13 4.69981 -74.14839 8366 ft 4 kts 217°
2026-04-25 15:13 4.69979 -74.14840 8366 ft 1 kts 217°
2026-04-25 15:14 4.69933 -74.14875 8366 ft 6 kts 217°
2026-04-25 15:14 4.69894 -74.14904 8366 ft 13 kts 216°
2026-04-25 15:14 4.69857 -74.14977 8366 ft 11 kts 287°
2026-04-25 15:14 4.69871 -74.14999 8366 ft 11 kts 307°
2026-04-25 15:15 4.69911 -74.15050 8366 ft 10 kts 308°
2026-04-25 15:15 4.69978 -74.15139 8366 ft 18 kts 307°
2026-04-25 15:15 4.70046 -74.15229 8366 ft 15 kts 307°
2026-04-25 15:15 4.70104 -74.15305 8365 ft 13 kts 307°
2026-04-25 15:16 4.70160 -74.15379 8365 ft 17 kts 307°
2026-04-25 15:16 4.70247 -74.15495 8365 ft 23 kts 307°
2026-04-25 15:16 4.70425 -74.15729 8365 ft 19 kts 308°
2026-04-25 15:17 4.70576 -74.15928 8365 ft 17 kts 307°
2026-04-25 15:17 4.70642 -74.16017 8366 ft 16 kts 307°
2026-04-25 15:17 4.70705 -74.16100 8366 ft 14 kts 307°
2026-04-25 15:18 4.70764 -74.16177 8366 ft 14 kts 307°
2026-04-25 15:18 4.70926 -74.16391 8366 ft 22 kts 307°
2026-04-25 15:18 4.71015 -74.16508 8365 ft 21 kts 307°
2026-04-25 15:19 4.71100 -74.16622 8366 ft 20 kts 307°
2026-04-25 15:19 4.71156 -74.16696 8366 ft 20 kts 308°
2026-04-25 15:19 4.71246 -74.16846 8366 ft 17 kts 263°
2026-04-25 15:19 4.71221 -74.16876 8366 ft 0 kts 219°
2026-04-25 15:20 4.71219 -74.16877 8366 ft 3 kts 216°
2026-04-25 15:20 4.71138 -74.16895 8364 ft 17 kts 174°
2026-04-25 15:21 4.71019 -74.16869 8363 ft 13 kts 141°
2026-04-25 15:21 4.71008 -74.16858 8363 ft 1 kts 135°
2026-04-25 15:21 4.70999 -74.16847 8363 ft 3 kts 130°
2026-04-25 15:21 4.70967 -74.16807 8363 ft 23 kts 127°
2026-04-25 15:22 4.70714 -74.16473 8365 ft 95 kts 127°
2026-04-25 15:22 4.70191 -74.15782 8363 ft 152 kts 127°
2026-04-25 15:22 4.69456 -74.14804 8421 ft 193 kts 127°
2026-04-25 15:22 4.68633 -74.13732 9213 ft 194 kts 132°
2026-04-25 15:23 4.67469 -74.13058 9747 ft 204 kts 174°
2026-04-25 15:23 4.66082 -74.13355 9915 ft 219 kts 216°
2026-04-25 15:23 4.65069 -74.14565 10069 ft 238 kts 239°
2026-04-25 15:23 4.64221 -74.16018 10564 ft 244 kts 240°
2026-04-25 15:24 4.63384 -74.17507 11137 ft 246 kts 240°
2026-04-25 15:24 4.62539 -74.19006 11715 ft 249 kts 240°
2026-04-25 15:24 4.61700 -74.20529 12289 ft 251 kts 247°
2026-04-25 15:24 4.61360 -74.21646 12565 ft 259 kts 258°
2026-04-25 15:25 4.60867 -74.24159 12745 ft 290 kts 259°
2026-04-25 15:25 4.60477 -74.26233 12866 ft 314 kts 259°
2026-04-25 15:25 4.59784 -74.28342 12966 ft 335 kts 242°
2026-04-25 15:25 4.58631 -74.30453 13144 ft 353 kts 242°
2026-04-25 15:26 4.57482 -74.32661 13645 ft 360 kts 243°
2026-04-25 15:26 4.56347 -74.34911 14208 ft 364 kts 243°
2026-04-25 15:26 4.55209 -74.37189 14724 ft 367 kts 244°
2026-04-25 15:26 4.54062 -74.39477 15284 ft 369 kts 243°
2026-04-25 15:27 4.52901 -74.41779 15808 ft 372 kts 243°
2026-04-25 15:27 4.51720 -74.44096 16310 ft 375 kts 243°
2026-04-25 15:27 4.49330 -74.48745 17364 ft 381 kts 243°
2026-04-25 15:28 4.48112 -74.51118 17848 ft 384 kts 243°
2026-04-25 15:28 4.46891 -74.53508 18356 ft 387 kts 243°
2026-04-25 15:28 4.45659 -74.55919 18801 ft 390 kts 243°
2026-04-25 15:28 4.44414 -74.58352 19249 ft 393 kts 243°
2026-04-25 15:29 4.43159 -74.60797 19685 ft 396 kts 243°
2026-04-25 15:29 4.41894 -74.63260 19968 ft 398 kts 243°
2026-04-25 15:29 4.40629 -74.65727 20013 ft 398 kts 243°
2026-04-25 15:29 4.39365 -74.68196 20017 ft 398 kts 243°
2026-04-25 15:30 4.38116 -74.70630 20011 ft 398 kts 243°
2026-04-25 15:30 4.36848 -74.73095 20007 ft 398 kts 243°
2026-04-25 15:30 4.35579 -74.75560 20002 ft 398 kts 243°
2026-04-25 15:30 4.34310 -74.78024 20002 ft 398 kts 243°
2026-04-25 15:31 4.33040 -74.80488 20003 ft 398 kts 243°
2026-04-25 15:31 4.31770 -74.82951 20002 ft 398 kts 243°
2026-04-25 15:31 4.30502 -74.85413 20002 ft 398 kts 243°
2026-04-25 15:31 4.29251 -74.87847 20002 ft 398 kts 243°
2026-04-25 15:32 4.27984 -74.90307 20005 ft 398 kts 243°
2026-04-25 15:32 4.26712 -74.92774 20011 ft 398 kts 243°
2026-04-25 15:32 4.25442 -74.95235 20016 ft 398 kts 243°
2026-04-25 15:33 4.22900 -75.00160 20083 ft 398 kts 243°
2026-04-25 15:33 4.21629 -75.02627 20058 ft 398 kts 243°
2026-04-25 15:33 4.20261 -75.05031 20056 ft 398 kts 236°
2026-04-25 15:33 4.18589 -75.07268 20449 ft 402 kts 233°
2026-04-25 15:34 4.16902 -75.09515 20928 ft 405 kts 234°
2026-04-25 15:34 4.15211 -75.11783 21388 ft 408 kts 234°
2026-04-25 15:34 4.13534 -75.14038 21827 ft 411 kts 234°
2026-04-25 15:34 4.12375 -75.15595 22123 ft 413 kts 234°
2026-04-25 15:35 4.08339 -75.20996 23101 ft 420 kts 233°
2026-04-25 15:35 4.06575 -75.23347 23530 ft 423 kts 233°
2026-04-25 15:35 4.04801 -75.25710 23872 ft 427 kts 233°
2026-04-25 15:36 4.01210 -75.30498 24490 ft 433 kts 233°
2026-04-25 15:36 3.99402 -75.32918 24796 ft 436 kts 233°
2026-04-25 15:36 3.97605 -75.35323 25109 ft 438 kts 233°
2026-04-25 15:37 3.95777 -75.37766 25460 ft 440 kts 232°
2026-04-25 15:37 3.93937 -75.40223 25779 ft 442 kts 232°
2026-04-25 15:37 3.92089 -75.42691 26093 ft 444 kts 232°
2026-04-25 15:37 3.90230 -75.45172 26357 ft 447 kts 232°
2026-04-25 15:38 3.88357 -75.47669 26646 ft 450 kts 232°
2026-04-25 15:38 3.86286 -75.50015 26964 ft 451 kts 222°
2026-04-25 15:38 3.83873 -75.52029 27222 ft 452 kts 217°
2026-04-25 15:38 3.81392 -75.53971 27522 ft 454 kts 217°
2026-04-25 15:39 3.78903 -75.55926 27824 ft 456 kts 217°
2026-04-25 15:39 3.76438 -75.57871 28117 ft 458 kts 217°
2026-04-25 15:39 3.73930 -75.59849 28398 ft 460 kts 216°
2026-04-25 15:39 3.71414 -75.61834 28676 ft 462 kts 216°
2026-04-25 15:40 3.68883 -75.63833 28933 ft 464 kts 216°
2026-04-25 15:40 3.68030 -75.64506 29060 ft 464 kts 216°
2026-04-25 15:40 3.63799 -75.67846 29480 ft 467 kts 216°
2026-04-25 15:40 3.61239 -75.69862 29719 ft 469 kts 216°
2026-04-25 15:41 3.58666 -75.71889 29954 ft 471 kts 216°
2026-04-25 15:41 3.56122 -75.73893 30168 ft 473 kts 216°
2026-04-25 15:41 3.53531 -75.75934 30362 ft 474 kts 216°
2026-04-25 15:41 3.50933 -75.77979 30558 ft 476 kts 216°
2026-04-25 15:42 3.48330 -75.80028 30776 ft 477 kts 216°
2026-04-25 15:42 3.45717 -75.82084 30965 ft 478 kts 216°
2026-04-25 15:42 3.43096 -75.84148 31139 ft 480 kts 216°
2026-04-25 15:42 3.40476 -75.86215 31323 ft 481 kts 216°
2026-04-25 15:43 3.37847 -75.88288 31512 ft 481 kts 216°
2026-04-25 15:43 3.35218 -75.90358 31743 ft 480 kts 216°
2026-04-25 15:43 3.32628 -75.92394 31978 ft 480 kts 216°
2026-04-25 15:43 3.30007 -75.94458 32216 ft 479 kts 216°
2026-04-25 15:44 3.27388 -75.96520 32456 ft 479 kts 216°
2026-04-25 15:44 3.24774 -75.98579 32696 ft 478 kts 216°
2026-04-25 15:44 3.22164 -76.00639 32938 ft 478 kts 216°
2026-04-25 15:44 3.19550 -76.02701 33132 ft 478 kts 216°
2026-04-25 15:45 3.14395 -76.06765 33189 ft 467 kts 216°
2026-04-25 15:45 3.11018 -76.09421 33180 ft 465 kts 216°
2026-04-25 15:46 3.04242 -76.14743 33178 ft 465 kts 216°
2026-04-25 15:46 2.99156 -76.18740 33181 ft 465 kts 216°
2026-04-25 15:47 2.94076 -76.22738 33155 ft 465 kts 216°
2026-04-25 15:47 2.88987 -76.26741 33144 ft 466 kts 216°
2026-04-25 15:48 2.83921 -76.30726 33140 ft 467 kts 216°
2026-04-25 15:48 2.78811 -76.34742 33025 ft 469 kts 216°
2026-04-25 15:49 2.76251 -76.36758 32763 ft 469 kts 216°
2026-04-25 15:49 2.73685 -76.38775 32518 ft 469 kts 216°
2026-04-25 15:49 2.71122 -76.40789 32285 ft 469 kts 216°
2026-04-25 15:49 2.68554 -76.42807 32057 ft 470 kts 216°
2026-04-25 15:50 2.65981 -76.44828 31831 ft 470 kts 216°
2026-04-25 15:50 2.63446 -76.46820 31601 ft 470 kts 216°
2026-04-25 15:50 2.60874 -76.48842 31393 ft 470 kts 216°
2026-04-25 15:50 2.58302 -76.50867 31117 ft 470 kts 216°
2026-04-25 15:51 2.55744 -76.52884 30472 ft 468 kts 216°
2026-04-25 15:51 2.54052 -76.54218 29999 ft 468 kts 216°
2026-04-25 15:51 2.50643 -76.56898 29125 ft 463 kts 216°
2026-04-25 15:51 2.48121 -76.58880 28488 ft 459 kts 217°
2026-04-25 15:52 2.45625 -76.60840 27867 ft 456 kts 217°
2026-04-25 15:52 2.43177 -76.62773 27278 ft 452 kts 218°
2026-04-25 15:52 2.40738 -76.64736 26685 ft 449 kts 218°
2026-04-25 15:52 2.38332 -76.66703 26091 ft 445 kts 219°
2026-04-25 15:53 2.35946 -76.68664 25498 ft 442 kts 219°
2026-04-25 15:53 2.33577 -76.70611 24911 ft 440 kts 219°
2026-04-25 15:53 2.31220 -76.72543 24343 ft 436 kts 220°
2026-04-25 15:53 2.28878 -76.74457 23793 ft 433 kts 220°
2026-04-25 15:54 2.26549 -76.76355 23184 ft 430 kts 220°
2026-04-25 15:54 2.24245 -76.78227 22693 ft 424 kts 220°
2026-04-25 15:54 2.21997 -76.80054 22174 ft 419 kts 220°
2026-04-25 15:54 2.19746 -76.81883 21675 ft 415 kts 220°
2026-04-25 15:55 2.17519 -76.83696 21214 ft 411 kts 220°
2026-04-25 15:55 2.15311 -76.85493 20745 ft 408 kts 220°
2026-04-25 15:55 2.13118 -76.87275 20270 ft 405 kts 220°
2026-04-25 15:55 2.10943 -76.89042 19799 ft 402 kts 220°
2026-04-25 15:56 2.08780 -76.90804 19315 ft 400 kts 220°
2026-04-25 15:56 2.06629 -76.92556 18840 ft 398 kts 220°
2026-04-25 15:56 2.04484 -76.94304 18304 ft 397 kts 220°
2026-04-25 15:56 2.02349 -76.96044 17759 ft 395 kts 220°
2026-04-25 15:57 2.00255 -76.97750 17280 ft 392 kts 220°
2026-04-25 15:57 1.98150 -76.99464 16789 ft 389 kts 220°
2026-04-25 15:57 1.96065 -77.01162 16301 ft 386 kts 220°
2026-04-25 15:57 1.93989 -77.02852 15816 ft 383 kts 220°
2026-04-25 15:58 1.91933 -77.04525 15340 ft 380 kts 219°
2026-04-25 15:58 1.89891 -77.06185 14919 ft 376 kts 219°
2026-04-25 15:58 1.87895 -77.07808 14800 ft 363 kts 219°
2026-04-25 15:58 1.85972 -77.09372 14640 ft 351 kts 219°
2026-04-25 15:59 1.84109 -77.10884 14530 ft 339 kts 219°
2026-04-25 15:59 1.82308 -77.12348 14415 ft 328 kts 219°
2026-04-25 15:59 1.80589 -77.13748 14302 ft 319 kts 219°
2026-04-25 15:59 1.78873 -77.15096 14184 ft 307 kts 213°
2026-04-25 16:00 1.77068 -77.16113 13970 ft 292 kts 208°
2026-04-25 16:00 1.76465 -77.16434 13821 ft 290 kts 208°
2026-04-25 16:00 1.73558 -77.17987 13259 ft 283 kts 208°
2026-04-25 16:00 1.71827 -77.18915 13012 ft 282 kts 208°
2026-04-25 16:01 1.70103 -77.19840 12753 ft 281 kts 208°
2026-04-25 16:01 1.68390 -77.20759 12498 ft 279 kts 208°
2026-04-25 16:01 1.66702 -77.21663 12251 ft 279 kts 208°
2026-04-25 16:01 1.64986 -77.22582 11990 ft 279 kts 208°
2026-04-25 16:02 1.63277 -77.23495 11735 ft 278 kts 208°
2026-04-25 16:02 1.61583 -77.24400 11479 ft 275 kts 208°
2026-04-25 16:02 1.59897 -77.25302 11165 ft 276 kts 207°
2026-04-25 16:02 1.58208 -77.26205 10773 ft 274 kts 208°
2026-04-25 16:03 1.56533 -77.27103 10501 ft 272 kts 207°
2026-04-25 16:03 1.54865 -77.27996 10245 ft 272 kts 207°
2026-04-25 16:03 1.53224 -77.28874 10000 ft 270 kts 207°
2026-04-25 16:03 1.51566 -77.29742 9737 ft 267 kts 206°
2026-04-25 16:04 1.49926 -77.30571 9491 ft 261 kts 206°
2026-04-25 16:04 1.48316 -77.31373 9276 ft 256 kts 206°
2026-04-25 16:04 1.46740 -77.32156 9034 ft 251 kts 206°
2026-04-25 16:04 1.45194 -77.32924 8823 ft 245 kts 206°
2026-04-25 16:05 1.43687 -77.33676 8668 ft 237 kts 206°
2026-04-25 16:05 1.42245 -77.34397 8647 ft 229 kts 206°
2026-04-25 16:05 1.39414 -77.35814 8815 ft 227 kts 206°
2026-04-25 16:06 1.37984 -77.36434 8788 ft 218 kts 193°
2026-04-25 16:06 1.36518 -77.36488 8446 ft 217 kts 167°
2026-04-25 16:06 1.35158 -77.35866 8115 ft 217 kts 141°
2026-04-25 16:06 1.34209 -77.34719 7807 ft 214 kts 115°
2026-04-25 16:07 1.33855 -77.33316 7472 ft 206 kts 90°
2026-04-25 16:07 1.33876 -77.32836 7369 ft 202 kts 81°
2026-04-25 16:07 1.34781 -77.30905 6825 ft 173 kts 44°
2026-04-25 16:07 1.35682 -77.30204 6671 ft 160 kts 26°
2026-04-25 16:08 1.36707 -77.29842 6431 ft 154 kts 14°
2026-04-25 16:08 1.37735 -77.29605 6199 ft 150 kts 14°
2026-04-25 16:08 1.38730 -77.29341 5983 ft 151 kts 14°
2026-04-25 16:08 1.39672 -77.29095 5905 ft 119 kts 14°
2026-04-25 16:09 1.40179 -77.28959 5881 ft 32 kts 15°
2026-04-25 16:09 1.40358 -77.28912 5866 ft 28 kts 15°
2026-04-25 16:09 1.40541 -77.28863 5868 ft 18 kts 14°
2026-04-25 16:09 1.40628 -77.28846 5852 ft 8 kts 69°
2026-04-25 16:10 1.40574 -77.28851 5861 ft 17 kts 200°
2026-04-25 16:10 1.40472 -77.28882 5866 ft 13 kts 195°
2026-04-25 16:10 1.40353 -77.28914 5867 ft 20 kts 195°
2026-04-25 16:10 1.40221 -77.28949 5879 ft 21 kts 195°
2026-04-25 16:11 1.40056 -77.28992 5883 ft 29 kts 195°
2026-04-25 16:11 1.39870 -77.29042 5893 ft 26 kts 195°
2026-04-25 16:11 1.39711 -77.29085 5904 ft 18 kts 195°
2026-04-25 16:11 1.39661 -77.29036 5904 ft 9 kts 118°
2026-04-25 16:12 1.39630 -77.29026 5906 ft 1 kts 176°
2026-04-25 16:12 1.39601 -77.29030 5907 ft 6 kts 191°
2026-04-25 16:12 1.39581 -77.29014 5908 ft 2 kts 111°
2026-04-25 16:12 1.39580 -77.29009 5908 ft 2 kts 110°
2026-04-25 16:13 1.39574 -77.28991 5908 ft 0 kts 106°